Tracking 25693 objects as of 1-Jul-2022
HD Live streaming from Space Station
objects crossing your sky now

STARLINK-3873

Track STARLINK-3873 now!
10-day predictions
STARLINK-3873 is classified as:


NORAD ID: 52467
Int'l Code: 2022-049S
Perigee: 423.0 km
Apogee: 425.1 km
Inclination: 53.2 °
Period: 92.9 minutes
Semi major axis: 6795 km
RCS: Unknown
Launch date: May 6, 2022
Source: United States (US)
Launch site: AIR FORCE EASTERN TEST RANGE (AFETR)
aabbcc
Your satellite tracking list
Your tracking list is empty




NASA's NSSDC Master Catalog

Two Line Element Set (TLE):
1 52467U 22049S   22181.58334491 -.00015309  00000-0 -26189-3 0  9991
2 52467  53.2152 354.1600 0001510  44.6621  51.1598 15.49928505  1304
Source of the keplerian elements: AFSPC